Flag for U.S.A. Weather past 2 weeks in Glendale, Arizona, U.S.A.

Now
84 °F

Passing clouds.


Feels Like: 84 °F
Forecast: 82 / 98 °F
Wind: 3 mph from Southeast

Location: Phoenix-Deer Valley Municipal Airport

Current Time: Sep 2, 2015 at 6:21:46 AM

Latest Report: Sep 2, 2015 at 5:53 AM


Visibility: 10 mi

Pressure: 29.84 "Hg

Humidity: 46%

Dew point: 61 °F

Location of GlendaleLocation

Historic Weather in Glendale — Graph

°F

Glendale temperature yesterday

Maximum temperature yesterday: 96 °F (at 3:53 PM)
Minimum temperature yesterday: 78 °F (at 5:53 AM)
Average temperature yesterday: 88 °F

Past Weeks' High & Low Weather Summary

 TemperatureHumidityPressure
High107 °F (Aug 29, 2:53 PM)63% (Aug 25, 8:53 PM)29.95 "Hg (Aug 25, 8:53 PM)
Low78 °F (Sep 1, 5:53 AM)16% (Aug 29, 4:53 PM)29.62 "Hg (Aug 18, 6:53 PM)
Average93 °F33%29.78 "Hg
* Reported Aug 18 4:53 AM — Sep 2 4:53 AM, Glendale, Weather by CustomWeather, © 2015

Note: Actual official high and low records may vary slightly from our data, if they occured in-between our weather recording intervals... More about our weather records

Advertising

Glendale weather history for previous 24 hours

 ConditionsComfort  
Time TempWeatherWind HumidityBarometerVisibility
4:53 AM
Wed, Sep 2
85 °FPassing clouds.5 mph45%29.83 "Hg10 mi
4:04 AM84 °FPassing clouds.5 mph45%29.91 "Hg10 mi
3:53 AM85 °FThundershowers. Passing clouds.5 mph43%29.83 "Hg10 mi
2:53 AM86 °FPassing clouds.5 mph39%29.83 "Hg10 mi
1:53 AM86 °FPassing clouds.6 mph39%29.82 "Hg10 mi
12:53 AM88 °FClear.6 mph36%29.82 "Hg10 mi
11:53 PM
Tue, Sep 1
86 °FClear.5 mph37%29.81 "Hg10 mi
10:53 PM89 °FClear.No wind34%29.80 "Hg10 mi
9:53 PM91 °FClear.5 mph32%29.79 "Hg10 mi
8:53 PM92 °FClear.3 mph32%29.79 "Hg10 mi
7:53 PM93 °FClear.3 mph31%29.78 "Hg10 mi
6:53 PM94 °FClear.5 mph30%29.75 "Hg10 mi
5:53 PM95 °FSunny.5 mph28%29.75 "Hg10 mi
4:53 PM95 °FSunny.5 mph28%29.75 "Hg10 mi
3:53 PM96 °FSunny.7 mph29%29.76 "Hg10 mi
1:53 PM95 °FSunny.6 mph29%29.80 "Hg10 mi
12:53 PM93 °FSunny.6 mph32%29.82 "Hg10 mi
11:53 AM91 °FSunny.10 mph34%29.84 "Hg10 mi
10:53 AM89 °FSunny.5 mph35%29.86 "Hg10 mi
9:53 AM87 °FSunny.7 mph39%29.87 "Hg10 mi
8:53 AM86 °FSunny.No wind42%29.86 "Hg10 mi
7:53 AM81 °FSunny.5 mph54%29.85 "Hg10 mi
6:53 AM79 °FSunny.3 mph60%29.85 "Hg10 mi
Weather by CustomWeather, © 2015

See weather overviewHow to use our weather pages